[[{"header":{"parameterUnit":"m.s-1","parameterCategory":1,"la1":30.2991,"la2":30.254,"lo1":-89.0895,"lo2":-89.0444,"dy":0.0017,"dx":0.0017,"nx":28,"ny":28,"refTime":"2025-04-21T09:00:00:Z","depth":0,"parameterNumber":2,"parameterNumberName":"U-component_of_WINDS"},"data":[0,0,0,0,0,0,0,0,0,0,0,0,0,0,0,0,0,0,0,0,0,0,0,0,0,0,0,0,0,0,0,0,0,0,0,0,0,0,0,0,0,0,0,0,0,0,0,0,0,0,0,0,0,0,0,0,0,0,-0.2965,-0.2965,0,-0.2972,-0.2973,-0.2973,-0.2978,-0.2978,-0.2978,-0.2978,-0.2987,-0.2987,-0.2987,0,0,0,0,0,0,0,0,0,0,0,0,0,-0.2957,-0.2957,-0.2965,-0.2965,-0.2965,-0.2972,-0.2973,-0.2973,-0.2978,-0.2978,-0.2978,-0.2978,-0.2987,-0.2987,-0.2987,0,0,0,0,0,0,0,0,0,0,0,0,0,-0.2962,-0.2957,-0.2965,-0.2969,-0.2969,-0.2972,-0.2973,-0.2973,-0.2978,-0.2978,-0.2978,-0.2978,-0.2987,-0.2987,-0.2987,-0.2988,0,0,-0.2988,-0.2989,0,0,0,0,0,0,0,0,-0.2961,-0.2962,-0.2968,-0.2968,-0.2969,-0.2974,-0.2973,-0.2978,-0.2978,-0.2975,-0.2978,-0.2978,-0.2983,-0.2983,-0.2985,-0.2988,-0.2989,-0.2988,-0.2989,-0.2989,-0.2989,0,0,0,0,0,0,0,-0.2961,-0.2962,-0.2968,-0.2968,-0.2968,-0.297,-0.2971,-0.2974,-0.2978,-0.2975,-0.2975,-0.2976,-0.2983,-0.2985,-0.2985,-0.2989,-0.2988,-0.2989,-0.2989,-0.2989,-0.2995,-0.2995,0,0,0,0,0,0,-0.296,-0.2961,-0.2968,-0.2968,-0.2965,-0.2971,-0.2971,-0.2973,-0.2978,-0.2979,-0.2976,-0.2976,-0.2984,-0.2985,-0.2985,-0.2987,-0.2989,-0.2989,-0.2989,-0.2995,-0.2995,-0.2995,0,0,0,0,0,0,-0.296,-0.296,-0.2967,-0.2965,-0.2966,-0.2971,-0.2972,-0.2973,-0.2974,-0.2979,-0.298,-0.2977,-0.2984,-0.2985,-0.2988,-0.2988,-0.2989,-0.2989,-0.2995,-0.2995,-0.2995,-0.299,0,0,0,0,0,0,-0.2959,-0.296,-0.296,-0.2965,-0.2966,-0.2969,-0.2972,-0.2973,-0.2974,-0.2975,-0.298,-0.2981,-0.2984,-0.2987,-0.2988,-0.2988,-0.299,-0.2995,-0.2995,-0.2995,-0.299,-0.299,-0.299,0,0,0,0,0,-0.2959,-0.2958,-0.296,-0.2961,-0.2966,-0.2969,-0.2969,-0.2973,-0.2974,-0.2975,-0.2978,-0.2981,-0.2987,-0.2987,-0.2988,-0.2988,-0.2995,-0.2995,-0.2995,-0.2991,-0.299,-0.299,0,0,0,0,0,0,-0.2953,-0.2959,-0.2961,-0.2961,-0.2964,-0.297,-0.297,-0.2972,-0.2975,-0.2976,-0.298,-0.2981,-0.2984,-0.2986,-0.2986,-0.299,-0.2992,-0.2992,-0.2988,-0.2988,-0.2987,-0.2987,-0.299,0,0,0,0,0,-0.2952,-0.2954,-0.2959,-0.2959,-0.296,-0.2965,-0.2966,-0.2969,-0.2972,-0.2974,-0.2977,-0.2981,-0.2984,-0.2986,-0.2989,-0.2991,-0.2993,-0.2992,-0.2991,-0.2991,-0.2991,-0.2994,-0.2994,-0.2995,-0.2995,-0.2995,0,0,-0.2949,-0.2953,-0.2953,-0.2958,-0.296,-0.2963,-0.2966,-0.2968,-0.2969,-0.2974,-0.2977,-0.298,-0.2984,-0.2987,-0.2988,-0.2989,-0.2991,-0.2991,-0.2991,-0.2991,-0.2994,-0.2993,-0.2993,-0.2995,-0.2995,-0.2995,0,0,-0.2946,-0.2948,-0.2949,-0.2952,-0.2956,-0.2959,-0.296,-0.2965,-0.2967,-0.297,-0.2974,-0.2976,-0.2981,-0.2985,-0.2987,-0.2987,-0.2989,-0.2988,-0.2986,-0.2988,-0.2988,-0.2988,-0.2988,-0.2988,-0.2988,-0.2988,-0.2988,0,-0.2942,-0.2945,-0.2949,-0.2951,-0.2953,-0.2958,-0.2959,-0.2962,-0.2967,-0.2969,-0.297,-0.2977,-0.298,-0.2984,-0.2984,-0.2986,-0.2987,-0.2987,-0.2988,-0.2988,-0.2988,-0.2988,-0.2988,-0.2987,-0.2987,-0.2987,-0.2987,0,-0.2941,-0.2943,-0.2943,-0.2948,-0.2951,-0.2952,-0.2957,-0.2959,-0.2962,-0.2966,-0.2969,-0.2974,-0.2978,-0.2979,-0.2982,-0.2984,-0.2985,-0.2987,-0.2988,-0.2987,-0.2988,-0.2988,-0.2987,-0.2987,-0.2987,-0.2987,0,0,-0.2933,-0.2941,-0.2941,-0.2944,-0.295,-0.2952,-0.2954,-0.2959,-0.2961,-0.2964,-0.2967,-0.2972,-0.2974,-0.2977,-0.298,-0.2982,-0.2983,-0.2984,-0.2984,-0.2984,-0.2986,-0.2985,-0.2985,-0.2985,-0.2985,-0.2985,-0.2986,0,-0.2931,-0.2935,-0.2939,-0.2942,-0.2945,-0.295,-0.2952,-0.2956,-0.296,-0.2963,-0.2968,-0.2971,-0.2973,-0.2975,-0.2977,-0.2982,-0.2983,-0.2982,-0.2988,-0.2988,-0.2987,-0.2985,-0.2984,-0.2985,-0.2986,-0.2986,-0.2986,0,-0.2929,-0.2932,-0.2935,-0.2942,-0.2943,-0.2945,-0.295,-0.2953,-0.2958,-0.2961,-0.2965,-0.2969,-0.2972,-0.2974,-0.298,-0.2979,-0.2982,-0.2985,-0.2985,-0.2986,-0.2987,-0.2987,-0.2985,-0.2985,-0.2987,-0.2987,-0.2987,0,-0.2923,-0.2929,-0.2932,-0.2934,-0.2942,-0.2943,-0.2946,-0.2952,-0.2955,-0.2959,-0.2962,-0.2967,-0.297,-0.2974,-0.2979,-0.298,-0.2985,-0.2987,-0.2988,-0.2988,-0.2989,-0.2989,-0.2988,-0.299,-0.299,-0.299,-0.299,0,-0.292,-0.2922,-0.293,-0.2932,-0.2935,-0.294,-0.2943,-0.2947,-0.2952,-0.2955,-0.296,-0.2963,-0.297,-0.2974,-0.2978,-0.2983,-0.2984,-0.2987,-0.2988,-0.2987,-0.2987,-0.2989,-0.2989,-0.299,-0.299,-0.299,-0.299,0,-0.2915,-0.292,-0.2924,-0.2931,-0.2933,-0.2934,-0.2941,-0.2943,-0.2948,-0.2952,-0.2953,-0.296,-0.2966,-0.2972,-0.2979,-0.2982,-0.2987,-0.2988,-0.2985,-0.2986,-0.2987,-0.2987,-0.2988,-0.2988,-0.299,-0.2989,-0.2989,0,-0.2913,-0.2914,-0.2922,-0.2924,-0.2928,-0.2931,-0.2934,-0.294,-0.2944,-0.2951,-0.2952,-0.2958,-0.2963,-0.2972,-0.2978,-0.2984,-0.2986,-0.2986,-0.2987,-0.2986,-0.2987,-0.2987,-0.2987,-0.2986,-0.2985,-0.2985,-0.2985,0,-0.2909,-0.2911,-0.2915,-0.2921,-0.2924,-0.2929,-0.2934,-0.2935,-0.2943,-0.2946,-0.2952,-0.2956,-0.2963,-0.297,-0.2977,-0.2981,-0.2985,-0.2985,-0.2986,-0.2984,-0.2983,-0.2984,-0.2984,-0.2985,-0.2985,-0.2985,-0.2985,-0.2985,-0.2905,-0.2907,-0.2913,-0.2918,-0.2922,-0.2927,-0.293,-0.2935,-0.2939,-0.2946,-0.295,-0.2955,-0.2962,-0.2972,-0.2976,-0.2981,-0.2983,-0.2983,-0.2984,-0.2984,-0.2984,-0.2982,-0.2983,-0.2983,-0.2983,-0.2983,-0.2983,0,-0.2902,-0.2906,-0.291,-0.2917,-0.2921,-0.2924,-0.293,-0.2933,-0.2938,-0.2944,-0.2949,-0.2956,-0.2963,-0.297,-0.2976,-0.2979,-0.2982,-0.2981,-0.2981,-0.2982,-0.2982,-0.2981,-0.2979,-0.2979,-0.2979,-0.2979,-0.2979,-0.2979,-0.29,-0.2905,-0.2908,-0.2915,-0.2919,-0.2925,-0.2928,-0.2933,-0.2938,-0.2945,-0.2951,-0.2955,-0.2962,-0.2969,-0.2976,-0.2978,-0.298,-0.2979,-0.2982,-0.2982,-0.2982,-0.2982,-0.2981,-0.298,-0.298,-0.2982,-0.2982,-0.2982]},{"header":{"parameterUnit":"m.s-1","parameterCategory":1,"la1":30.2991,"la2":30.254,"lo1":-89.0895,"lo2":-89.0444,"dy":0.0017,"dx":0.0017,"nx":28,"ny":28,"refTime":"2025-04-21T09:00:00:Z","depth":0,"parameterNumber":3,"parameterNumberName":"V-component_of_WINDS"},"data":[0,0,0,0,0,0,0,0,0,0,0,0,0,0,0,0,0,0,0,0,0,0,0,0,0,0,0,0,0,0,0,0,0,0,0,0,0,0,0,0,0,0,0,0,0,0,0,0,0,0,0,0,0,0,0,0,0,0,3.5381,3.5381,0,3.5381,3.5381,3.5381,3.5316,3.5314,3.5312,3.5311,3.5311,3.5312,3.5314,0,0,0,0,0,0,0,0,0,0,0,0,0,3.5323,3.5324,3.5381,3.5381,3.5381,3.5381,3.5381,3.5381,3.5316,3.5314,3.5312,3.531,3.531,3.5312,3.5314,0,0,0,0,0,0,0,0,0,0,0,0,0,3.5338,3.5325,3.5381,3.5348,3.5346,3.5381,3.5381,3.5381,3.5317,3.5314,3.5311,3.5309,3.531,3.5312,3.5314,3.5381,0,0,3.5322,3.5323,0,0,0,0,0,0,0,0,3.5337,3.534,3.5353,3.5351,3.5348,3.5346,3.5361,3.5381,3.5317,3.5328,3.5311,3.5308,3.5324,3.5325,3.5331,3.5381,3.5381,3.5322,3.5323,3.5324,3.5325,0,0,0,0,0,0,0,3.5336,3.534,3.5381,3.5353,3.535,3.5334,3.5333,3.5364,3.534,3.5326,3.5322,3.5323,3.5322,3.5329,3.5331,3.5381,3.5322,3.5324,3.5325,3.5326,3.5484,3.5487,0,0,0,0,0,0,3.534,3.534,3.5381,3.5381,3.5336,3.5337,3.5336,3.5349,3.534,3.5336,3.5325,3.532,3.5326,3.5328,3.533,3.5407,3.5324,3.5327,3.5328,3.5481,3.5485,3.5488,0,0,0,0,0,0,3.5339,3.5344,3.5381,3.5359,3.5362,3.534,3.5356,3.535,3.5357,3.5339,3.5334,3.5336,3.5324,3.5327,3.5369,3.5406,3.5328,3.533,3.5478,3.5482,3.5486,3.5562,0,0,0,0,0,0,3.5338,3.5344,3.537,3.536,3.5364,3.5419,3.5358,3.5352,3.5361,3.5354,3.5348,3.5344,3.5322,3.5365,3.5371,3.5408,3.5332,3.5475,3.548,3.5485,3.5556,3.5568,3.5578,0,0,0,0,0,3.5336,3.5391,3.5371,3.5377,3.5395,3.5422,3.5424,3.5397,3.5365,3.539,3.5378,3.5345,3.5401,3.537,3.5376,3.5414,3.5472,3.5478,3.5484,3.5551,3.5565,3.5578,0,0,0,0,0,0,3.5405,3.5389,3.5367,3.5421,3.5423,3.5411,3.5441,3.5414,3.5426,3.5419,3.5385,3.5385,3.5431,3.5427,3.5393,3.5478,3.5431,3.5438,3.5479,3.5493,3.5504,3.5504,3.5334,0,0,0,0,0,3.5427,3.5451,3.5435,3.5484,3.5486,3.5464,3.5474,3.5454,3.5455,3.5456,3.5447,3.5449,3.5467,3.548,3.5496,3.5555,3.5552,3.5584,3.5595,3.5605,3.5612,3.5642,3.5656,3.5508,3.5508,3.5508,0,0,3.5472,3.5466,3.5483,3.5498,3.5497,3.5522,3.5465,3.5494,3.5511,3.546,3.5498,3.5492,3.5492,3.5543,3.5565,3.5541,3.5652,3.5612,3.562,3.5622,3.565,3.5664,3.5676,3.5512,3.5511,3.5511,0,0,3.5566,3.5564,3.5605,3.5605,3.5605,3.559,3.5599,3.5591,3.5585,3.5623,3.5585,3.5605,3.5638,3.5639,3.5644,3.5739,3.5709,3.5745,3.5804,3.5834,3.5846,3.5856,3.5889,3.5902,3.5752,3.5752,3.5752,0,3.5622,3.5658,3.5629,3.566,3.5667,3.5622,3.5662,3.5664,3.5669,3.5675,3.5648,3.5687,3.5684,3.5734,3.5757,3.5763,3.5772,3.5745,3.5846,3.5856,3.5865,3.5897,3.591,3.5756,3.5756,3.5755,3.5755,0,3.5727,3.5752,3.5784,3.579,3.5801,3.5837,3.5813,3.5827,3.5806,3.5793,3.5833,3.5827,3.5841,3.5851,3.5831,3.5899,3.5884,3.5852,3.5804,3.5884,3.5913,3.5925,3.5763,3.5761,3.576,3.5759,0,0,3.5865,3.5854,3.5867,3.5869,3.5865,3.5884,3.5917,3.593,3.5943,3.5948,3.5975,3.6003,3.5974,3.598,3.5958,3.5985,3.606,3.595,3.5949,3.597,3.6134,3.6158,3.6172,3.604,3.6042,3.6044,3.6134,0,3.5957,3.6013,3.5987,3.6046,3.6069,3.6026,3.6055,3.6055,3.6045,3.6062,3.605,3.607,3.603,3.6033,3.6058,3.6046,3.6092,3.6039,3.6064,3.6066,3.6066,3.6188,3.6213,3.6298,3.6145,3.6147,3.6149,0,3.6071,3.608,3.6142,3.6133,3.6142,3.6168,3.6178,3.6196,3.6195,3.6185,3.6192,3.6165,3.6196,3.6149,3.6192,3.6156,3.6165,3.6161,3.6163,3.6165,3.6112,3.6192,3.6325,3.6338,3.6166,3.6165,3.6164,0,3.6166,3.6194,3.6234,3.6237,3.6228,3.6248,3.6245,3.6242,3.6251,3.626,3.6266,3.6278,3.6285,3.6295,3.6272,3.6239,3.6318,3.6269,3.6311,3.6311,3.6329,3.6328,3.6465,3.6335,3.6335,3.6335,3.6335,0,3.627,3.631,3.6276,3.6301,3.6344,3.6313,3.6356,3.6349,3.6346,3.6369,3.6332,3.6354,3.6321,3.634,3.6322,3.636,3.6364,3.6357,3.6351,3.636,3.6361,3.6365,3.6359,3.6338,3.6338,3.6337,3.6336,0,3.6384,3.6363,3.6404,3.6392,3.639,3.6422,3.6411,3.6434,3.642,3.6449,3.6454,3.6432,3.6452,3.643,3.6448,3.6436,3.6488,3.6474,3.6488,3.6484,3.6527,3.6524,3.6672,3.669,3.6548,3.655,3.6551,0,3.6452,3.6481,3.6472,3.6484,3.6484,3.6504,3.6513,3.6485,3.6496,3.6497,3.652,3.6536,3.6548,3.6582,3.6568,3.6581,3.6567,3.6618,3.6569,3.6577,3.6568,3.6567,3.6569,3.6629,3.663,3.6632,3.6633,0,3.6575,3.6563,3.6578,3.659,3.6602,3.661,3.6614,3.6626,3.6596,3.6611,3.6631,3.664,3.6658,3.6675,3.6685,3.6682,3.6653,3.6648,3.6659,3.6668,3.6675,3.6672,3.6515,3.6645,3.6644,3.6643,3.6642,3.6642,3.6668,3.6691,3.6689,3.6706,3.6707,3.6712,3.6732,3.6721,3.6737,3.675,3.6731,3.6756,3.6754,3.6764,3.6764,3.6783,3.6761,3.6777,3.678,3.6785,3.6791,3.6672,3.6785,3.6784,3.6784,3.6784,3.6784,0,3.6789,3.6785,3.6802,3.6809,3.6823,3.6794,3.6798,3.6811,3.6833,3.6834,3.6846,3.6869,3.6885,3.6873,3.6886,3.6903,3.689,3.6908,3.6906,3.6906,3.681,3.6799,3.6918,3.6918,3.6918,3.6918,3.6918,3.6918,3.6854,3.6892,3.688,3.6918,3.6913,3.6937,3.6942,3.6946,3.6946,3.6973,3.6986,3.6978,3.6973,3.6986,3.7,3.6995,3.7002,3.7024,3.7016,3.6926,3.6913,3.69,3.689,3.7026,3.7026,3.711,3.7111,3.7112]}]]